Location: Dreilärchen
(47.9312°N, 8.6113°E)
Time: 00:22:34
(UTC+00:00)

Cosmos 371 Rocket - Pass Details

Date: 26 May 2022
Orbit: 684 x 697 km, 74.0° (Epoch: 02 July)

Event Time Altitude Azimuth Distance (km) Brightness Sun altitude
Exits shadow 01:06:10 23° 245° (WSW) 1,457 4.5 -17.2°
Maximum altitude 01:08:39 40° 300° (WNW) 1,026 4.2 -17.0°
Drops below altitude 10° 01:13:14 10° 10° (N) 2,158 7.0 -16.6°
Sets 01:15:41 0° 18° (NNE) 3,077 8.3 -16.5°
